GFSCGP_con_lsi_093.txt.gz
Lid_Strength_Index
11 14 16 15 12 11 12 13 14 13 10 10 11 12 10 9 9 9 8 8 8 9 7 4 3 3 2 3 3 2 3 2 2 3 4 4 4 3 3 3 3 1 0 1
13 16 13 12 12 12 13 14 14 12 9 10 11 12 10 9 9 8 8 8 8 8 6 4 4 4 3 3 2 2 3 2 3 2 3 3 3 2 3 2 3 2 0 0
14 12 10 12 13 14 14 15 14 13 11 10 11 13 11 8 8 8 8 7 7 8 6 5 5 4 3 3 3 3 3 3 3 3 3 3 3 3 3 3 2 1 0 0
12 9 10 12 12 11 14 11 11 12 14 16 12 17 12 10 9 8 8 8 7 8 6 5 5 4 4 3 3 3 3 3 3 3 4 3 4 4 3 4 3 2 0 0
12 11 12 13 12 10 13 9 11 12 14 16 15 17 13 10 11 9 8 7 7 7 6 5 5 4 3 3 3 3 3 4 3 4 3 3 4 4 4 4 3 3 2 1
10 8 9 10 9 9 9 11 11 12 14 19 15 16 15 12 11 9 8 7 6 8 8 4 4 4 4 3 3 3 4 4 3 4 3 3 3 3 4 4 4 4 3 3
11 11 9 8 12 10 11 14 20 20 20 20 13 16 14 10 9 9 8 7 7 8 9 5 5 5 4 4 4 4 4 4 4 4 3 2 2 3 5 3 3 4 4 4
15 17 11 9 10 13 13 13 18 22 22 20 13 17 14 8 8 8 7 7 7 7 7 5 5 5 4 4 4 4 5 4 4 3 3 2 2 4 4 4 3 3 4 4
15 14 9 9 9 10 13 15 12 17 17 20 17 14 10 9 9 8 7 8 9 8 8 5 5 4 4 4 4 5 4 4 4 3 2 2 3 2 4 4 3 4 4 4
12 15 10 10 9 9 12 10 17 16 22 23 18 17 17 13 12 10 9 9 9 7 6 5 5 4 4 4 4 4 4 4 4 3 2 2 3 3 4 4 4 4 4 4
11 13 13 11 13 14 13 14 14 14 16 21 21 19 12 12 11 10 9 8 8 8 7 6 5 4 4 4 5 5 5 4 4 3 2 2 2 3 3 4 4 4 4 4
10 12 15 14 10 9 11 13 13 18 19 17 18 18 10 10 9 9 9 7 7 7 7 5 5 4 4 5 5 5 5 5 4 3 2 2 2 2 3 3 4 4 4 4
10 13 17 16 13 11 13 12 12 13 14 18 20 18 9 9 9 8 8 7 7 7 6 5 5 5 5 5 5 5 5 5 4 3 3 3 2 2 2 3 4 4 4 5
9 12 15 18 16 12 15 13 12 14 17 17 17 15 12 11 10 9 8 7 7 6 7 7 6 5 5 5 5 5 5 4 4 4 4 4 3 2 2 2 3 3 4 4
10 14 13 12 12 11 13 13 13 14 14 17 15 14 12 10 10 9 8 7 7 7 6 6 7 6 6 6 5 4 4 4 4 4 4 4 4 3 3 2 2 3 3 4
10 14 13 14 11 12 13 13 13 12 12 13 13 14 9 8 8 8 8 7 7 7 7 8 8 7 7 6 6 6 5 4 3 4 4 4 4 4 4 3 3 3 3 3
11 12 14 16 12 13 15 12 12 12 11 12 15 12 9 10 9 8 8 8 7 8 9 9 9 9 9 8 7 8 6 5 4 3 3 3 3 3 3 3 3 3 3 3
11 12 13 16 14 20 12 10 10 11 11 10 10 10 9 9 8 9 7 8 9 10 11 11 11 11 11 9 8 8 7 7 7 8 7 7 7 5 3 3 3 3 3 2
9 12 16 17 17 15 12 10 11 12 12 9 10 9 8 8 9 10 10 9 10 11 11 12 12 12 12 11 9 9 9 9 9 9 9 9 9 8 8 7 5 2 2 3
10 11 14 16 18 21 12 9 7 8 16 9 9 9 9 8 12 12 10 11 11 11 11 12 12 14 14 13 11 10 11 10 10 11 11 11 11 10 10 10 9 8 7 4
14 14 15 16 16 15 9 9 7 15 14 8 8 8 8 10 10 10 11 12 12 12 12 12 12 14 14 13 12 11 11 11 10 11 12 13 13 12 12 12 10 10 9 9
14 15 16 15 17 18 8 9 13 10 9 8 8 9 10 10 10 11 12 13 13 14 12 12 13 14 14 14 13 12 12 10 10 11 13 14 14 13 13 13 13 12 11 12
15 12 14 13 14 9 7 8 7 8 10 10 9 9 10 11 12 12 13 14 14 14 14 13 14 15 15 14 14 15 14 12 12 13 14 14 15 14 14 14 14 14 13 13
10 9 12 12 10 9 8 7 8 8 10 11 11 11 10 12 12 13 13 14 14 14 14 14 15 16 16 16 15 15 14 13 12 13 14 14 15 15 15 14 14 14 14 14
11 10 12 11 9 9 9 8 9 10 10 11 12 13 14 13 14 15 16 16 16 16 15 15 15 15 15 15 15 14 13 12 13 13 13 14 14 14 14 14 14 14 13 13
10 12 14 14 12 10 10 9 9 10 12 12 13 14 15 15 16 16 16 16 17 17 16 16 16 16 15 15 15 14 13 13 13 14 14 14 14 14 14 15 16 13 13 13

GFSCGP_con_lsi_099.txt.gz
Lid_Strength_Index
10 13 15 13 12 12 12 13 13 12 10 11 11 11 10 9 8 8 7 6 6 5 4 4 3 3 2 1 2 1 1 2 2 1 2 2 2 1 1 1 -0 -0 -0 -0
12 14 12 11 11 12 12 14 14 12 11 11 11 12 10 9 8 7 7 6 6 5 4 4 4 3 2 2 2 2 1 2 1 1 1 1 2 2 1 1 2 0 -1 -0
13 12 11 11 12 13 13 14 14 14 12 11 12 13 12 10 9 8 7 6 5 5 5 4 3 2 2 2 2 2 2 2 1 1 1 2 3 2 2 2 2 2 1 1
12 11 12 13 13 12 14 12 12 13 13 15 11 17 12 10 9 8 7 7 6 5 4 4 3 3 3 2 2 2 1 1 1 1 2 2 2 3 2 2 1 0 0 -0
12 11 11 12 11 10 12 9 11 11 12 13 13 15 14 11 10 9 7 6 6 5 5 5 4 3 2 2 2 2 1 1 1 2 2 3 3 2 1 1 1 0 -0 -0
10 7 8 9 9 9 8 10 11 11 13 17 14 14 14 12 10 9 8 7 6 5 5 4 3 2 3 2 2 2 2 2 2 3 3 3 3 2 2 2 1 1 1 0
11 11 8 8 11 9 10 12 17 18 19 17 12 15 13 9 9 9 8 7 6 5 5 4 4 4 3 3 3 2 2 3 3 3 4 3 2 1 2 1 1 1 2 1
15 16 11 9 10 12 12 12 16 20 20 18 13 17 12 9 8 7 6 6 6 6 5 5 4 4 4 3 3 3 3 3 3 3 4 3 2 1 1 1 1 1 2 2
14 14 9 9 8 9 13 14 11 16 15 17 15 12 10 9 9 8 7 7 7 6 5 5 4 3 4 3 3 3 3 2 3 4 4 3 2 1 1 1 1 1 1 2
11 15 10 9 8 9 11 10 16 15 21 22 17 16 14 12 11 9 8 8 7 6 6 5 4 4 3 3 3 2 2 3 3 4 4 3 2 1 1 1 1 1 1 2
10 11 13 10 12 13 13 14 13 14 16 20 20 16 11 11 10 10 8 7 7 7 6 5 5 4 3 3 3 3 2 4 4 4 4 3 2 1 1 1 1 0 1 2
9 11 15 13 9 8 10 12 12 16 18 16 17 15 9 9 8 8 8 7 6 7 7 5 5 4 4 3 3 3 3 3 3 3 3 3 2 1 1 1 1 1 1 2
9 13 17 16 12 10 12 12 11 13 14 17 19 15 9 8 8 7 8 7 7 8 8 8 5 5 4 4 3 3 3 3 3 3 4 3 2 2 1 1 2 1 1 1
8 11 13 16 15 12 14 13 11 13 17 16 15 14 10 9 9 8 8 7 8 9 10 10 9 8 7 4 4 4 4 3 4 3 4 3 3 3 1 1 1 2 1 1
10 14 12 11 11 11 12 12 11 13 12 15 13 13 10 9 9 8 7 8 9 11 11 12 11 10 9 8 7 6 4 3 3 4 4 4 3 3 3 1 1 1 2 1
9 13 12 14 12 11 13 12 12 12 11 12 12 12 8 7 7 8 8 8 10 11 11 12 12 13 11 10 10 9 9 5 3 3 3 3 3 3 3 3 2 2 2 2
10 12 14 16 13 13 16 13 12 11 10 11 14 10 8 9 9 9 9 10 11 11 13 13 13 13 12 11 10 10 10 10 10 9 9 8 7 6 5 3 3 3 3 3
11 12 12 15 14 20 13 10 9 10 9 9 10 9 9 10 11 11 11 11 12 12 13 14 14 14 13 11 11 11 11 11 12 12 12 11 10 9 9 8 8 7 6 3
8 11 14 15 15 13 12 11 11 12 11 9 10 9 9 9 10 13 13 13 13 13 14 14 14 14 13 12 11 11 12 13 14 14 13 13 12 12 11 11 11 10 8 9
9 9 12 14 17 18 12 9 7 8 14 8 9 9 9 9 13 14 14 14 14 14 13 14 14 14 15 14 13 13 14 14 15 14 14 13 13 13 12 12 12 11 10 12
13 13 15 15 16 13 10 8 7 15 13 8 9 9 9 12 13 14 14 14 14 14 14 13 14 15 15 14 14 15 14 15 15 15 15 14 14 14 13 13 12 12 12 13
13 14 15 14 16 17 8 8 12 10 10 9 10 11 12 13 13 14 15 15 15 15 14 14 15 15 15 15 14 15 15 14 15 15 15 16 15 15 14 14 13 12 12 13
14 12 13 12 13 8 8 9 9 9 11 10 10 10 11 14 15 15 16 16 16 16 15 14 15 15 15 14 15 15 15 14 14 14 15 16 16 16 15 15 15 15 14 14
10 9 11 11 10 11 9 9 9 10 12 12 11 11 11 13 15 16 16 16 17 16 16 15 15 16 16 16 15 15 14 13 14 15 16 16 16 16 15 15 15 15 15 15
10 10 12 11 11 10 11 10 11 11 11 12 13 13 13 13 14 16 17 17 17 17 16 16 16 17 17 16 16 15 14 13 14 15 15 15 16 16 17 17 16 15 14 13
10 12 13 14 12 12 12 11 11 13 14 14 14 15 15 15 15 16 17 17 18 18 17 17 17 17 17 17 16 15 15 14 14 14 14 14 14 14 15 15 16 14 14 13

GFSCGP_con_lsi_102.txt.gz
Lid_Strength_Index
10 13 13 11 10 11 11 11 11 10 9 9 10 9 8 7 7 6 6 5 5 4 3 2 1 1 1 0 1 1 1 0 1 1 2 1 2 1 0 -0 -1 -1 -1 -1
12 14 11 10 10 11 11 12 12 10 9 10 10 10 9 8 7 6 6 5 4 4 3 2 2 1 1 1 1 1 1 1 1 1 1 0 1 1 0 -0 -0 -1 -1 -1
13 12 10 11 11 12 12 12 12 12 10 10 11 11 10 8 7 6 6 6 5 5 4 3 2 2 1 1 1 1 1 1 1 0 0 0 0 1 1 1 1 -0 -1 -1
11 9 11 11 11 11 13 9 10 11 12 14 10 14 11 9 8 7 6 6 5 5 4 4 3 2 1 1 1 1 1 1 1 0 1 1 2 3 1 1 1 1 -1 -0
11 11 11 11 10 9 11 10 10 10 11 11 11 13 10 9 9 7 6 5 5 4 4 3 2 2 1 1 1 1 1 1 1 1 1 1 1 1 1 1 1 1 -0 -0
9 7 8 9 8 9 8 9 10 10 11 15 11 12 11 9 9 8 7 6 5 4 4 3 2 2 2 1 1 1 1 1 1 1 1 1 1 1 1 1 1 1 1 0
10 10 8 7 10 8 8 11 16 18 18 16 11 12 9 9 8 8 7 6 5 4 4 4 3 3 2 2 2 2 1 2 2 1 1 1 1 1 1 1 1 1 1 1
13 16 10 8 9 11 10 10 14 17 17 14 12 14 11 8 7 6 6 5 5 5 4 4 3 3 2 2 2 2 2 2 2 2 1 1 1 1 1 1 1 1 1 0
13 13 8 8 7 8 11 13 10 15 14 15 12 10 8 8 8 7 6 6 6 5 5 5 3 3 2 2 2 2 2 2 2 2 1 2 1 1 1 0 0 0 0 0
9 14 9 9 7 8 9 8 15 13 19 19 14 13 12 11 9 8 7 6 6 5 5 6 4 3 2 2 2 2 2 2 3 2 2 1 1 0 0 0 0 0 0 0
8 10 13 10 11 11 12 12 12 12 14 18 17 15 10 9 8 8 7 6 6 6 6 7 4 3 2 2 2 3 2 2 3 2 2 1 1 1 0 0 0 0 0 0
8 10 14 12 9 7 9 11 11 15 17 14 15 14 8 7 6 6 7 6 6 5 8 9 8 4 3 3 3 3 3 2 2 2 2 1 1 1 1 1 0 0 0 0
8 11 16 15 11 9 11 10 11 12 13 16 16 13 7 6 6 6 7 7 6 7 9 10 10 8 5 4 3 3 3 2 2 2 3 2 2 1 1 1 0 0 0 0
6 10 12 15 13 11 13 11 10 12 15 14 14 12 9 7 7 7 7 7 7 8 10 11 11 9 9 6 3 3 3 3 3 3 3 3 2 1 1 1 0 0 0 1
8 12 11 11 10 10 10 11 10 11 11 13 11 11 9 8 7 7 7 7 8 9 12 12 12 11 10 9 9 7 3 3 3 3 3 3 2 2 1 1 1 0 0 0
9 13 11 13 10 11 12 11 11 11 10 10 10 11 7 8 7 8 9 10 10 12 12 14 13 13 11 10 10 10 9 9 8 7 7 3 3 3 3 2 2 1 1 1
10 11 13 15 12 12 14 12 11 10 9 10 13 10 8 12 13 14 12 12 12 12 13 14 15 14 12 11 11 12 12 11 11 11 10 9 7 7 6 4 3 2 1 1
10 11 11 14 13 18 12 8 8 9 9 9 9 9 10 12 13 14 13 14 14 14 14 15 16 15 13 12 11 12 12 12 13 13 12 12 10 10 9 9 9 7 6 7
7 9 12 13 14 12 11 10 10 11 11 9 10 9 9 10 10 14 14 14 14 14 14 14 14 16 14 13 12 12 13 14 14 14 13 13 12 12 12 11 11 10 10 12
8 8 10 12 15 17 12 8 6 7 13 8 8 10 9 10 12 14 14 14 14 14 14 14 14 14 16 14 13 14 15 14 14 14 14 13 13 13 13 12 12 12 13 14
11 11 13 13 14 12 9 7 6 13 14 9 9 11 12 15 14 14 14 15 14 14 14 14 14 15 15 14 14 14 14 15 14 14 14 14 13 13 13 12 12 13 13 14
12 13 13 12 15 18 9 7 11 10 10 10 10 10 11 11 12 14 15 15 15 15 14 13 14 15 15 14 14 15 15 15 15 14 15 15 15 14 13 13 13 13 13 14
13 11 13 12 13 10 10 11 11 10 12 11 10 10 11 11 13 14 15 15 15 15 14 13 14 15 15 15 15 15 15 14 14 14 14 15 15 15 15 14 14 14 13 13
9 7 11 11 11 11 10 10 10 11 11 11 11 11 10 12 12 14 15 16 16 16 15 14 13 14 15 15 15 15 14 13 14 14 15 16 16 15 14 14 14 14 14 14
8 8 11 11 10 10 11 11 10 11 10 11 11 12 12 12 13 13 14 15 16 16 15 15 14 14 14 14 14 14 13 13 13 14 14 14 15 16 17 17 16 16 16 15
8 11 11 12 11 11 12 11 11 12 13 12 12 12 12 12 13 13 14 14 14 15 15 15 15 15 15 14 14 14 13 13 12 13 13 13 13 13 13 14 16 16 16 15

GFSCGP_con_lsi_105.txt.gz
Lid_Strength_Index
7 9 11 10 9 8 9 9 9 9 7 8 8 8 7 6 5 6 5 5 5 4 3 2 2 1 1 0 1 1 1 1 1 1 1 1 1 1 1 0 -0 -1 -1 -1
7 11 9 8 9 9 10 10 11 10 8 9 9 9 8 7 7 6 5 5 5 4 3 3 2 1 1 1 1 1 1 1 1 1 1 1 1 1 0 0 -0 -1 -1 -1
9 9 8 9 10 11 11 12 12 11 9 9 10 11 10 8 7 6 6 5 5 5 4 3 2 2 1 1 1 1 1 1 1 0 0 0 0 1 1 1 0 0 -0 -0
7 7 8 10 11 10 13 10 10 11 11 14 9 14 9 8 8 7 7 7 5 5 4 4 3 3 1 1 1 1 1 1 1 0 1 1 2 3 1 1 1 0 -0 -0
9 9 9 10 11 10 12 9 10 10 12 12 12 13 10 8 9 8 6 5 5 4 3 3 3 2 2 1 1 1 1 1 1 1 1 1 2 1 1 1 1 1 0 -0
7 5 6 9 9 9 9 9 10 10 10 14 12 11 11 9 8 7 6 5 5 4 4 3 2 2 2 1 1 1 1 1 1 1 1 1 2 1 2 1 2 1 1 0
9 9 6 7 10 9 9 10 15 17 16 16 10 11 10 8 7 7 7 6 5 4 4 4 3 3 2 2 1 1 1 2 1 1 1 1 1 1 1 1 1 1 1 1
13 17 9 7 9 11 10 11 14 19 17 14 10 13 10 7 6 6 5 5 5 4 4 4 4 3 2 2 1 1 1 2 1 1 1 1 1 1 1 1 1 1 1 1
13 15 9 7 7 8 11 13 9 14 13 15 12 10 8 7 7 7 6 5 6 5 4 4 4 4 3 2 2 1 2 2 1 2 1 1 1 1 1 1 0 0 0 1
9 14 9 8 7 7 9 8 14 13 18 17 13 12 14 11 9 7 7 6 6 5 5 4 5 5 4 2 1 1 1 2 2 2 2 2 1 1 1 0 1 0 0 0
8 11 12 9 10 11 11 12 12 11 13 17 15 16 9 9 7 7 6 7 6 5 5 6 7 9 6 3 2 2 2 2 2 2 2 1 1 1 1 1 0 1 1 1
7 10 14 13 7 7 8 10 10 14 16 13 15 15 7 6 6 6 7 6 5 5 6 7 9 11 9 8 3 3 2 2 2 2 2 1 1 1 1 1 1 0 1 0
7 11 16 16 11 9 11 9 10 11 12 15 16 15 6 6 6 7 8 6 6 5 7 8 10 12 11 10 6 3 3 3 2 2 2 2 2 2 1 1 1 1 1 1
7 10 13 15 13 10 12 11 10 11 14 14 13 11 10 9 9 8 8 7 7 7 8 9 11 13 12 10 10 5 3 2 2 2 2 2 2 2 1 1 1 1 1 1
8 13 12 11 10 10 11 11 11 12 11 13 11 12 11 9 9 9 9 10 10 10 10 10 11 13 14 11 10 10 7 2 2 2 2 3 2 1 1 1 1 1 1 1
8 12 11 12 10 10 11 10 11 11 10 10 9 12 8 7 9 12 12 12 13 12 12 13 12 14 15 12 12 11 11 10 8 8 8 4 3 2 2 2 1 1 1 1
10 11 12 15 12 12 14 11 10 10 10 11 15 11 8 10 12 13 13 13 14 14 14 14 15 14 15 13 12 13 12 11 12 12 11 10 8 7 7 3 2 2 2 2
11 11 11 14 13 17 11 7 8 9 10 9 10 10 10 13 13 13 13 14 14 14 14 14 16 15 15 13 13 13 13 13 13 14 13 12 11 10 10 9 8 8 9 10
7 9 11 13 13 12 11 9 9 10 12 8 9 9 9 11 11 13 13 14 14 14 13 14 14 15 14 15 13 14 13 14 14 15 14 13 13 13 12 12 12 12 13 14
7 7 9 11 14 18 13 8 6 6 15 8 8 10 11 10 12 13 13 13 14 13 13 13 14 14 15 15 14 15 15 15 15 16 15 13 13 13 13 13 14 14 15 15
10 10 12 12 13 13 10 8 6 15 14 9 9 9 10 13 14 13 13 14 14 13 12 12 13 14 14 14 14 15 16 16 15 14 15 14 14 13 13 13 14 15 16 16
12 14 13 12 14 18 11 7 12 11 10 10 10 9 10 11 11 12 13 14 14 14 13 12 12 14 14 14 14 15 15 15 15 16 15 15 15 14 13 13 13 13 14 14
13 11 13 12 13 11 10 11 10 9 10 10 10 10 10 11 11 12 13 13 14 14 13 12 12 12 13 13 14 15 14 14 14 15 16 16 16 15 15 15 15 14 14 14
9 6 11 11 11 10 10 10 9 10 10 10 10 10 10 11 11 11 12 12 13 13 14 13 13 13 13 13 13 14 13 12 13 14 15 15 17 17 17 17 17 18 16 16
8 8 10 11 10 10 10 10 10 10 10 9 9 10 10 10 11 11 12 12 12 12 12 13 13 14 14 13 14 13 13 12 12 13 13 14 15 16 17 18 17 17 17 17
7 10 10 12 9 9 11 10 10 11 11 11 10 10 10 11 11 11 12 12 12 13 12 13 13 13 13 14 14 14 13 13 13 13 13 13 13 13 14 16 17 17 17 17

GFSCGP_con_lsi_108.txt.gz
Lid_Strength_Index
6 9 11 11 9 8 9 9 10 9 8 8 9 9 8 7 6 7 6 6 6 5 3 3 2 2 2 2 1 2 2 1 1 2 2 2 2 1 1 0 0 0 0 -0
8 10 9 8 7 8 9 10 10 8 7 8 8 9 7 7 7 6 6 6 6 5 4 3 2 2 2 2 2 2 2 2 1 1 1 1 1 1 1 0 0 0 0 0
10 8 6 8 8 9 9 11 10 11 9 8 9 10 9 8 7 7 6 5 5 5 4 3 3 3 2 2 2 2 2 2 1 1 1 1 1 2 2 1 1 0 0 0
8 7 7 8 9 9 11 8 8 10 11 14 9 15 11 9 9 8 7 6 5 4 4 4 4 3 2 2 2 1 1 1 1 1 2 2 3 3 2 2 1 1 0 0
9 9 9 10 9 8 10 7 9 9 11 12 12 14 11 8 9 8 7 6 5 4 4 4 3 3 2 2 2 2 1 1 1 1 1 2 2 2 2 1 1 1 1 0
8 6 7 8 7 7 7 9 9 10 12 15 13 13 13 11 9 7 6 6 5 5 4 4 3 3 3 2 2 2 2 2 1 1 2 2 2 2 2 2 2 2 1 1
9 9 8 6 9 7 8 11 17 19 19 18 12 13 12 9 7 7 7 6 5 5 5 4 4 4 3 3 3 2 2 2 2 2 2 2 2 2 2 2 2 2 2 2
13 16 10 7 8 10 10 12 17 19 19 16 12 14 12 7 6 6 6 6 5 5 5 4 4 4 4 4 3 4 2 2 2 2 2 2 1 2 2 2 2 2 2 1
16 15 9 8 7 8 11 13 10 15 14 17 14 12 10 8 7 7 7 6 6 6 5 5 5 5 6 6 5 4 3 2 2 2 2 2 1 2 2 1 1 1 1 1
11 17 11 9 8 7 9 8 15 15 22 23 16 16 16 12 10 8 8 7 6 5 5 6 7 7 8 7 6 5 2 2 2 2 2 2 2 1 1 1 2 1 1 1
11 13 13 10 12 13 13 14 13 12 14 20 19 19 11 11 9 9 8 7 6 6 6 7 8 9 10 9 9 8 3 2 3 2 2 2 2 2 1 1 1 1 1 1
9 12 15 13 8 7 10 12 12 16 15 14 17 18 10 9 8 8 8 7 6 7 7 8 9 10 12 11 10 10 5 3 2 2 2 2 2 2 2 2 1 1 2 1
9 13 17 16 12 9 12 10 10 11 13 15 17 18 9 8 8 8 8 8 8 9 9 9 9 10 11 12 11 11 9 3 3 3 2 2 2 2 2 2 1 1 1 1
7 11 13 18 15 11 13 12 10 11 15 14 15 15 11 11 11 10 10 10 10 10 11 11 10 10 11 12 12 12 11 8 2 3 2 3 2 2 2 1 2 2 1 1
9 15 14 13 11 10 12 11 11 12 11 14 14 14 12 12 11 12 11 12 12 12 12 12 12 12 11 12 13 13 12 10 8 5 3 3 2 2 2 2 2 2 1 1
8 14 11 15 12 12 14 11 10 11 11 12 13 14 10 10 11 12 12 13 14 13 13 13 13 13 13 12 14 13 13 12 11 10 11 9 5 4 3 3 2 2 2 2
11 11 13 15 11 12 14 11 12 11 10 11 15 12 10 13 14 14 14 14 14 14 13 14 14 14 14 13 13 14 13 13 12 12 12 11 10 10 8 5 4 4 4 2
11 11 11 15 13 20 12 8 9 11 10 9 10 10 11 13 13 13 13 14 14 14 14 14 14 14 15 14 13 13 13 13 14 14 13 13 12 12 12 11 11 11 11 11
8 9 12 14 15 13 12 10 11 12 13 10 10 9 10 11 11 14 13 13 14 13 13 13 14 14 14 14 13 14 14 14 15 15 14 14 13 13 14 14 14 14 14 15
7 8 11 13 15 19 13 11 7 8 15 10 9 10 10 10 13 15 14 14 14 13 11 12 13 13 14 14 14 14 16 15 16 16 15 14 14 14 15 16 16 15 15 15
12 12 14 14 15 14 11 9 7 15 15 10 10 10 11 14 14 13 13 13 13 12 12 11 12 13 14 13 14 15 15 16 16 15 16 15 15 15 15 15 16 15 15 16
13 15 14 14 16 18 11 9 13 11 10 9 10 10 10 11 11 12 12 12 12 12 12 12 12 13 13 13 14 14 14 14 14 15 16 16 16 16 16 16 15 16 16 16
14 11 13 13 14 11 10 11 10 9 10 10 10 9 9 10 11 11 11 12 12 12 13 12 13 13 13 13 14 15 14 13 14 15 16 17 18 18 17 18 18 17 16 16
9 7 11 11 11 11 10 10 10 9 10 10 10 10 10 11 11 12 12 12 12 12 13 12 13 14 14 14 14 14 13 12 12 14 15 16 17 18 18 18 19 19 19 18
8 8 10 11 10 10 10 10 10 10 9 9 9 10 11 11 11 12 12 13 13 13 12 12 13 14 14 14 14 13 13 13 12 13 13 14 16 17 18 18 18 18 18 17
8 10 11 12 10 10 11 10 9 10 11 11 11 11 11 11 12 11 13 13 13 13 13 13 13 14 14 15 15 14 13 13 13 14 13 13 13 14 16 18 19 17 17 17

GFSCGP_con_lsi_114.txt.gz
Lid_Strength_Index
13 14 15 11 11 11 11 13 14 12 9 9 10 10 8 8 7 8 8 9 9 9 7 6 6 5 7 7 5 2 2 2 1 2 2 3 3 3 2 2 2 2 1 1
12 14 11 9 8 10 11 13 13 11 10 10 10 11 9 8 8 8 8 9 9 9 9 7 7 7 7 7 5 2 2 2 1 1 2 2 2 3 3 2 2 1 1 1
12 10 8 10 10 10 11 13 13 13 11 10 11 12 11 8 7 6 7 8 8 8 9 6 5 4 4 4 4 3 2 2 1 1 2 3 4 4 4 3 3 2 1 1
11 9 9 10 10 10 14 9 11 11 12 14 11 19 13 11 10 8 8 9 7 6 5 5 5 6 6 6 4 5 5 2 1 1 2 3 3 3 3 3 2 2 1 1
11 10 11 12 10 9 12 9 10 11 12 13 13 17 14 12 12 10 8 7 7 7 7 8 8 8 8 7 7 6 7 6 2 2 2 2 3 2 4 3 3 2 2 2
10 7 8 9 8 9 8 10 10 12 14 19 14 16 15 13 11 10 8 8 8 9 9 9 9 9 9 9 8 8 7 7 7 5 2 2 2 3 4 3 3 3 3 3
11 10 9 7 11 9 10 13 19 19 20 20 13 16 14 11 10 9 10 10 9 10 11 11 12 12 11 10 10 8 8 8 7 8 5 2 2 3 3 3 3 3 3 3
16 16 11 8 10 12 11 12 17 21 21 19 12 16 13 10 8 9 10 11 11 12 12 12 12 12 12 11 10 9 9 8 7 6 6 2 2 3 2 3 3 3 3 3
16 14 9 8 8 10 13 15 11 16 16 19 15 15 11 10 10 11 12 12 13 13 12 13 12 12 11 11 11 10 9 9 8 6 3 2 2 2 3 3 3 3 3 3
12 16 10 9 9 9 11 9 16 16 22 24 18 18 17 13 13 12 12 13 13 13 13 13 12 12 11 11 10 10 10 10 9 8 3 2 2 2 2 3 3 3 3 3
10 13 13 11 12 14 13 13 14 14 16 22 22 19 13 14 13 15 13 13 13 13 13 12 12 12 11 10 10 10 11 11 11 9 5 2 2 2 2 3 3 3 3 3
10 13 16 15 11 9 11 13 13 17 19 17 18 18 13 14 14 13 14 13 13 13 13 13 13 12 12 11 11 11 11 12 12 10 8 3 4 3 3 3 3 3 3 3
10 14 18 17 13 11 13 12 11 13 14 18 20 18 13 12 14 14 14 14 14 14 13 13 13 13 12 12 12 12 12 13 12 11 10 8 8 4 3 3 3 3 3 3
8 12 15 18 16 13 15 13 12 13 17 17 17 16 14 14 15 15 15 15 14 14 14 13 13 13 12 11 11 11 12 12 12 12 11 11 10 8 3 4 3 3 3 3
10 14 14 13 13 13 14 14 14 15 14 16 16 17 16 16 15 14 13 14 14 13 13 13 13 13 12 12 12 11 12 12 11 12 12 12 11 11 9 3 3 3 3 3
9 14 13 15 13 12 14 14 13 13 13 14 15 17 14 15 15 15 15 14 14 14 14 14 14 13 13 13 13 12 12 13 13 13 13 12 12 11 12 11 5 3 3 3
12 13 14 17 14 13 17 15 14 14 13 13 15 14 14 16 16 16 16 15 14 13 14 14 15 14 14 13 13 14 13 13 14 13 13 13 12 12 12 13 13 12 10 7
11 12 13 16 15 20 15 11 12 14 13 13 13 14 15 16 15 15 15 15 15 13 14 15 15 14 14 13 13 13 14 14 15 15 14 14 13 13 13 13 14 15 14 14
9 11 15 17 17 15 15 14 15 14 15 12 14 13 14 14 13 15 14 14 14 13 14 15 15 14 14 14 13 13 14 15 15 16 16 16 15 14 14 15 15 15 16 16
9 10 13 15 18 20 16 14 11 11 17 12 13 14 14 12 17 16 13 13 14 13 14 15 15 15 15 15 14 14 14 15 16 17 17 16 16 16 16 15 15 15 15 16
13 13 16 15 17 16 14 12 10 16 17 11 12 13 14 16 14 13 12 13 14 14 14 14 15 16 16 15 14 15 14 14 15 16 16 17 17 16 17 16 16 15 15 16
14 15 17 15 18 19 12 12 14 12 11 11 11 11 13 12 12 13 14 14 14 14 14 14 15 15 16 15 15 16 15 13 13 15 16 17 17 17 18 17 17 17 16 17
14 13 15 14 15 12 11 11 10 11 12 12 12 10 11 13 14 14 15 15 15 15 15 15 16 16 16 15 15 15 15 13 13 15 17 17 17 18 17 18 17 18 18 18
9 8 13 13 12 11 11 10 10 11 11 12 12 12 12 14 14 15 15 15 16 16 16 16 16 17 17 17 16 16 14 13 13 14 15 16 17 17 17 17 17 17 18 18
11 10 12 12 11 11 10 10 10 11 11 12 12 13 13 14 15 15 16 16 16 16 16 16 17 17 18 17 17 17 16 14 14 14 14 15 16 17 17 16 16 16 16 16
11 12 12 14 10 11 11 10 10 12 13 13 13 14 13 14 15 15 16 16 16 17 17 17 17 17 18 17 17 17 16 14 14 14 15 15 15 16 17 17 17 14 14 14

GFSCGP_con_lsi_117.txt.gz
Lid_Strength_Index
14 17 19 17 14 13 13 14 14 13 11 12 12 12 11 9 8 8 7 7 8 7 7 7 6 6 8 8 6 2 2 2 1 2 3 2 3 2 2 2 2 1 1 2
14 18 13 13 12 12 12 12 13 11 10 10 12 13 10 10 8 7 7 8 8 7 7 5 4 4 5 4 6 3 2 2 2 1 2 2 2 3 2 3 3 2 2 2
15 12 10 10 11 12 13 14 12 13 10 11 12 14 12 9 7 6 6 6 7 8 6 6 6 7 7 7 6 3 3 2 2 1 1 4 4 4 4 3 3 3 2 2
12 9 10 11 11 10 14 9 10 12 13 16 11 17 12 10 9 8 8 8 7 6 7 8 9 9 9 9 8 7 7 4 2 2 2 3 3 4 2 2 2 2 2 2
13 11 11 11 11 9 12 9 10 11 13 14 14 17 13 10 11 10 9 9 9 10 10 10 10 10 10 10 10 9 9 9 7 5 2 3 3 3 4 3 3 3 3 2
11 8 9 9 8 9 8 10 11 12 13 19 14 15 16 14 13 11 10 11 11 11 11 11 11 11 11 10 10 9 9 10 9 8 7 2 3 3 4 4 3 3 3 3
11 11 9 8 11 9 10 13 19 20 20 20 13 16 14 12 10 11 12 13 12 12 12 12 13 12 11 11 11 9 9 8 8 9 9 8 2 3 3 3 2 3 3 3
16 17 12 10 10 12 11 13 18 21 21 19 13 18 16 10 10 10 11 12 13 13 13 13 12 12 12 12 11 11 10 9 8 8 8 8 7 2 3 2 2 3 3 2
16 15 10 9 9 9 12 14 10 15 15 19 16 15 12 11 12 14 13 12 13 13 13 13 12 12 12 12 11 11 10 10 9 9 8 7 5 3 3 3 3 3 3 2
12 17 10 9 8 9 11 10 16 16 20 22 19 17 17 15 14 14 14 14 13 13 13 13 13 12 12 11 11 11 10 10 10 9 9 7 4 2 1 3 3 3 3 3
10 13 13 11 12 13 13 14 14 13 15 21 22 19 13 14 14 15 15 14 14 14 14 14 13 13 12 11 11 11 11 11 11 11 10 8 7 2 1 2 3 3 3 3
10 13 16 14 10 9 11 13 12 17 17 17 18 18 12 14 13 13 14 14 13 14 14 14 14 13 13 12 12 12 11 11 11 11 11 10 9 7 2 2 3 3 3 3
10 14 17 16 13 10 13 12 12 13 14 18 19 18 12 12 14 14 14 14 14 14 14 14 14 14 13 13 13 12 12 11 12 12 11 11 11 9 8 4 3 3 3 3
9 13 15 18 16 13 15 13 12 13 17 17 17 17 16 16 15 15 14 14 15 15 15 15 15 14 14 13 13 13 12 12 12 12 13 13 12 12 11 8 3 3 3 3
10 15 13 13 13 13 14 14 13 14 14 17 17 18 17 16 16 15 14 14 15 15 16 15 16 15 14 13 12 12 12 12 13 13 13 13 12 11 12 11 10 4 3 3
10 14 13 15 13 15 16 15 14 14 15 15 16 18 15 15 15 16 15 14 14 15 15 15 14 14 14 13 13 13 13 13 13 14 14 13 12 12 12 12 13 13 11 5
12 13 14 17 13 14 18 16 15 15 14 13 17 16 15 17 17 16 15 15 15 16 16 16 15 15 15 14 13 14 14 14 14 14 14 14 13 13 13 13 13 14 15 14
12 12 13 16 15 21 16 13 13 15 14 14 15 15 16 16 15 15 14 15 14 16 16 17 16 15 15 14 13 13 14 15 15 16 15 14 14 14 13 13 13 13 14 15
9 12 15 17 17 16 15 14 15 15 16 13 14 14 15 15 14 16 14 14 14 16 16 16 16 16 15 15 14 13 14 15 16 16 16 16 15 15 15 15 15 13 15 15
10 11 13 15 18 20 16 14 11 12 18 12 13 14 14 12 17 17 14 15 15 14 16 17 16 17 17 16 15 15 14 16 17 17 17 16 16 16 17 16 16 15 15 16
14 14 16 15 17 16 15 13 9 16 17 11 13 13 15 17 16 14 15 16 16 15 16 15 16 17 16 16 16 16 15 15 16 16 17 17 17 17 17 17 16 17 16 16
15 16 17 16 18 20 13 12 14 12 11 11 11 12 13 13 14 15 16 17 16 16 16 16 17 17 17 16 16 17 16 14 13 15 17 17 17 17 17 17 17 17 17 18
15 14 16 15 16 13 12 12 11 11 13 14 12 12 13 15 15 16 16 16 16 17 17 16 17 18 17 17 17 18 16 14 14 14 16 17 16 16 16 17 17 17 17 18
11 9 14 14 12 12 11 11 12 12 13 13 12 13 14 15 15 16 16 17 18 18 18 18 18 19 19 18 17 17 16 14 15 15 14 16 17 17 16 15 15 15 16 17
12 11 14 13 12 11 11 11 12 12 13 13 13 14 14 15 16 17 17 17 18 18 18 18 18 19 19 18 18 18 17 15 15 15 15 15 16 17 17 16 15 15 15 14
11 12 13 15 11 12 12 11 12 13 14 14 14 15 15 15 17 17 18 17 18 18 18 19 19 19 19 18 18 18 17 15 14 15 15 15 15 16 17 18 18 15 14 14